Flag for Israel Weather past 2 weeks in Modi'in-Maccabim-Re'ut, Israel

Now
66 °F

Clear.


Feels Like: 66 °F
Forecast: 51 / 67 °F
Wind: 1 mph from North

Location: Ben Gurion International Airport

Current Time: Jan 25, 2015 at 12:20:56 PM

Latest Report: Jan 25, 2015 at 11:50 AM


Visibility: 5 mi

Pressure: 30.01 "Hg

Humidity: 56%

Dew point: 50 °F

Location of Modi'in-Maccabim-Re'utLocation

Historic Weather in Modi'in-Maccabim-Re'ut — Graph

°F

Modi'in-Maccabim-Re'ut temperature yesterday

Maximum temperature yesterday: 77 °F (at 1:50 PM)
Minimum temperature yesterday: 48 °F (at 6:20 AM)
Average temperature yesterday: 60 °F

Past Weeks' High & Low Weather Summary

 TemperatureHumidityPressure
High77 °F (Jan 21, 2:20 PM)100% (Jan 18, 4:20 AM)30.36 "Hg (Jan 18, 4:20 AM)
Low41 °F (Jan 12, 3:20 AM)22% (Jan 24, 1:50 PM)29.92 "Hg (Jan 24, 1:20 AM)
Average54 °F71%30.15 "Hg
* Reported Jan 10 11:20 AM — Jan 25 11:20 AM, Modi'in-Maccabim-Re'ut, Weather by CustomWeather, © 2014

Note: Actual official high and low records may vary slightly from our data, if they occured in-between our weather recording intervals... More about our weather records

Advertising

Modi'in-Maccabim-Re'ut weather history for previous 24 hours

 ConditionsComfort  
Time TempWeatherWind HumidityBarometerVisibility
11:20 AM
Jan 25
66 °FClear.3 mph56%30.04 "Hg6 mi
10:50 AM64 °FSunny.3 mph56%30.04 "Hg10 mi
10:20 AM64 °FSunny.3 mph56%30.04 "Hg10 mi
9:50 AM61 °FSunny.3 mph63%30.04 "Hg10 mi
9:20 AM61 °FSunny.3 mph59%30.04 "Hg10 mi
8:50 AM59 °FSunny.1 mph63%30.04 "Hg10 mi
8:20 AM55 °FSunny.2 mph67%30.01 "Hg10 mi
7:50 AM52 °FSunny.No wind77%30.01 "Hg10 mi
7:20 AM50 °FSunny.2 mph82%30.01 "Hg10 mi
6:50 AM48 °FSunny.1 mph87%29.98 "Hg10 mi
6:20 AM50 °FClear.2 mph82%29.98 "Hg10 mi
5:20 AM52 °FClear.2 mph77%29.95 "Hg10 mi
4:50 AM52 °FClear.2 mph77%29.95 "Hg10 mi
4:20 AM52 °FClear.3 mph77%29.95 "Hg10 mi
3:50 AM52 °FClear.2 mph77%29.95 "Hg10 mi
3:20 AM52 °FClear.5 mph77%29.95 "Hg10 mi
2:50 AM54 °FClear.2 mph72%29.95 "Hg10 mi
2:20 AM54 °FClear.2 mph72%29.95 "Hg10 mi
1:50 AM54 °FClear.No wind72%29.95 "Hg10 mi
1:20 AM54 °FClear.3 mph72%29.95 "Hg10 mi
12:50 AM54 °FClear.5 mph72%29.95 "Hg10 mi
12:20 AM54 °FClear.3 mph72%29.95 "Hg10 mi
11:20 PM
Jan 24
55 °FClear.5 mph67%29.98 "Hg10 mi
10:50 PM54 °FClear.3 mph77%29.98 "Hg10 mi
10:20 PM55 °FClear.3 mph72%29.98 "Hg10 mi
9:50 PM55 °FClear.1 mph72%29.98 "Hg10 mi
9:20 PM55 °FClear.No wind72%29.98 "Hg10 mi
8:50 PM59 °FClear.2 mph63%29.98 "Hg10 mi
8:20 PM57 °FClear.2 mph72%29.98 "Hg10 mi
7:50 PM57 °FClear.1 mph72%29.98 "Hg10 mi
7:20 PM59 °FClear.1 mph68%29.98 "Hg10 mi
6:50 PM63 °FClear.1 mph59%29.98 "Hg10 mi
6:20 PM63 °FClear.1 mph59%29.98 "Hg10 mi
5:50 PM63 °FClear.3 mph59%29.98 "Hg10 mi
5:20 PM64 °FClear.5 mph49%29.95 "Hg10 mi
4:50 PM66 °FSunny.6 mph46%29.95 "Hg10 mi
4:20 PM70 °FSunny.6 mph38%29.95 "Hg10 mi
3:50 PM72 °FSunny.5 mph29%29.92 "Hg10 mi
3:20 PM73 °FSunny.6 mph27%29.92 "Hg10 mi
2:50 PM73 °FSunny.8 mph27%29.92 "Hg10 mi
2:20 PM75 °FSunny.7 mph29%29.92 "Hg10 mi
1:50 PM77 °FSunny.7 mph22%29.92 "Hg10 mi
1:20 PM75 °FSunny.6 mph25%29.92 "Hg10 mi
12:50 PM73 °FSunny.9 mph29%29.92 "Hg10 mi
12:20 PM75 °FSunny.8 mph31%29.95 "Hg10 mi
Weather by CustomWeather, © 2014

See weather overviewHow to use our weather pages